Pittsfield, MA

10:53 PM EST on December 09, 2016 (GMT -0500)
Pittsfield Municipal

Weather History for KPSF - November, 2013

Change the Weather History Date:

Tuesday, November 19, 2013

  Actual Average Record
Temperature  
Mean Temperature 33 °F 37 °F  
Max Temperature 39 °F 45 °F 65 °F (1953)
Min Temperature 26 °F 28 °F 6 °F (1936)
Degree Days  
Heating Degree Days 32 28  
Month to date heating degree days 488 481  
Since 1 July heating degree days 1261 1317  
Cooling Degree Days 0 0  
Month to date cooling degree days 0 0  
Year to date cooling degree days 433 290  
Moisture  
Dew Point 19 °F    
Average Humidity 58    
Maximum Humidity 69    
Minimum Humidity 47    
Precipitation  
Precipitation 0.00 in 0.14 in 1.78 in (1932)
Month to date precipitation 1.33 2.43  
Year to date precipitation 34.85 40.88  
Sea Level Pressure  
Sea Level Pressure 30.01 in    
Wind  
Wind Speed 14 mph (WNW)    
Max Wind Speed 35 mph    
Max Gust Speed 48 mph    
Visibility 10 miles    
Events      
T = Trace of Precipitation, MM = Missing Value Source: NWS Daily Summary

Daily Weather History Graph

Daily Weather History Graph

Search for Another Location

Airport or City:

Trip Planner

Search our weather history database for the weather conditions in past years. The results will help you decide how hot, cold, wet, or windy it might be!

Date:

Astronomy

Nov. 19, 2013 Rise Set
Actual Time 6:49 AM EST 4:27 PM EST
Civil Twilight 6:18 AM EST 4:58 PM EST
Nautical Twilight 5:44 AM EST 5:32 PM EST
Astronomical Twilight 5:11 AM EST 6:05 PM EST
Moon 6:16 PM EST (11/19) 8:26 AM EST (11/19)
Length of Visible Light 10h 39m
Length of Day
9h 38m
Waning Gibbous, 96% of the Moon is Illuminated
Nov 19
Waning Gibbous
Nov 25
Last Quarter
Dec 2
New
Dec 9
First Quarter
Dec 17
Full

Hourly Weather History & Observations

Time (EST) Temp. Windchill Dew Point Humidity Pressure Visibility Wind Dir Wind Speed Gust Speed Precip Events Conditions
12:54 AM 37.9 °F 28.9 °F 26.1 °F 62% 29.71 in 10.0 mi WNW 16.1 mph 25.3 mph N/A   Overcast
1:54 AM 37.0 °F 28.9 °F 21.9 °F 54% 29.73 in 10.0 mi WNW 12.7 mph 26.5 mph N/A   Scattered Clouds
2:54 AM 36.0 °F 25.6 °F 19.9 °F 52% 29.74 in 10.0 mi West 18.4 mph 26.5 mph N/A   Mostly Cloudy
3:54 AM 36.0 °F 26.0 °F 21.0 °F 55% 29.75 in 10.0 mi WNW 17.3 mph 27.6 mph N/A   Overcast
4:54 AM 35.1 °F 23.5 °F 24.1 °F 64% 29.78 in 10.0 mi West 21.9 mph 39.1 mph N/A   Overcast
5:54 AM 34.0 °F 22.7 °F 24.1 °F 67% 29.80 in 10.0 mi WNW 19.6 mph 32.2 mph N/A   Mostly Cloudy
6:43 AM 33.8 °F 20.8 °F 21.2 °F 60% 29.85 in 10.0 mi WNW 26.5 mph 38.0 mph N/A   Overcast
6:54 AM 32.0 °F 20.1 °F 21.0 °F 64% 29.86 in 10.0 mi WNW 19.6 mph 36.8 mph N/A   Mostly Cloudy
7:54 AM 32.0 °F 19.8 °F 19.9 °F 61% 29.89 in 10.0 mi WNW 20.7 mph 41.4 mph N/A   Partly Cloudy
8:54 AM 32.0 °F 20.5 °F 18.0 °F 56% 29.94 in 10.0 mi WNW 18.4 mph 36.8 mph N/A   Partly Cloudy
9:54 AM 33.1 °F 22.6 °F 19.0 °F 56% 29.96 in 10.0 mi NW 16.1 mph 27.6 mph N/A   Mostly Cloudy
10:54 AM 33.1 °F 24.4 °F 19.0 °F 56% 29.99 in 10.0 mi NW 11.5 mph 29.9 mph N/A   Overcast
11:54 AM 34.0 °F 26.0 °F 19.0 °F 54% 30.01 in 10.0 mi NW 10.4 mph 23.0 mph N/A   Overcast
12:54 PM 36.0 °F 26.7 °F 19.0 °F 50% 30.02 in 10.0 mi WNW 15.0 mph 24.2 mph N/A   Overcast
1:54 PM 35.1 °F 24.5 °F 18.0 °F 50% 30.05 in 10.0 mi WNW 18.4 mph 29.9 mph N/A   Scattered Clouds
2:54 PM 36.0 °F 27.5 °F 19.0 °F 50% 30.07 in 10.0 mi NW 12.7 mph - N/A   Scattered Clouds
3:54 PM 33.1 °F 25.5 °F 19.0 °F 56% 30.11 in 10.0 mi WNW 9.2 mph 24.2 mph N/A   Overcast
4:54 PM 32.0 °F 21.6 °F 19.0 °F 59% 30.15 in 10.0 mi WNW 15.0 mph 25.3 mph N/A   Overcast
5:54 PM 30.9 °F 20.7 °F 19.0 °F 61% 30.20 in 10.0 mi WNW 13.8 mph 20.7 mph N/A   Overcast
6:54 PM 30.0 °F 21.1 °F 18.0 °F 61% 30.24 in 10.0 mi NW 10.4 mph 18.4 mph N/A   Overcast
7:54 PM 28.9 °F 21.9 °F 17.1 °F 61% 30.25 in 10.0 mi NW 6.9 mph 21.9 mph N/A   Overcast
8:54 PM 28.9 °F 20.4 °F 17.1 °F 61% 30.27 in 10.0 mi WNW 9.2 mph - N/A   Overcast
9:54 PM 28.9 °F 21.1 °F 16.0 °F 58% 30.30 in 10.0 mi WNW 8.1 mph - N/A   Overcast
10:54 PM 26.1 °F 18.4 °F 16.0 °F 66% 30.32 in 10.0 mi WNW 6.9 mph - N/A   Scattered Clouds
11:54 PM 26.1 °F 18.4 °F 15.1 °F 63% 30.33 in 10.0 mi NNW 6.9 mph - N/A   Partly Cloudy